"Pseudo-MPEC" for C23N1Z2

Created 2020 Feb 21 5:07:09 UT using Find_Orb

Click here for an explanation of pseudo-MPECs

 
 Astrometry: 
     C23N1Z2  C2020 02 05.39768 14 07 43.96 +56 08 19.0    ~25AM 20.8 GVNEOCPG96
     C23N1Z2  C2020 02 05.40286 14 07 34.75 +56 09 11.0    ~25AM 20.7 GVNEOCPG96
     C23N1Z2  C2020 02 05.40803 14 07 25.29 +56 10 05.9    ~25AM 20.9 GVNEOCPG96
     C23N1Z2  C2020 02 05.41321 14 07 16.02 +56 10 58.6    ~25AM 20.9 GVNEOCPG96
     C23N1Z2  C2020 02 05.50259 14 04 34.75 +56 25 54.3    ~25Cb 22.3 GVNEOCPI52
     C23N1Z2  C2020 02 05.50454 14 04 30.51 +56 26 12.3    ~25Cb 22.8 GVNEOCPI52
     C23N1Z2  C2020 02 05.50648 14 04 27.19 +56 26 34.3    ~25Cb       VNEOCPI52
     C23N1Z2  C2020 02 05.50843 14 04 23.53 +56 26 51.6    ~25Cb       VNEOCPI52
     C23N1Z2  C2020 02 06.41343 13 38 00.51 +58 34 23.5    ~26Ab 20.9 GVNEOCPG96
     C23N1Z2  C2020 02 06.41667 13 37 54.67 +58 34 47.0    ~26Ab       VNEOCPG96
     C23N1Z2  C2020 02 06.41830 13 37 51.81 +58 35 00.2    ~26Ab       VNEOCPG96

Station data:
(G96) Mt. Lemmon Survey  (N32.442754 W110.788720)  US/Arizona.  Observers T.
   A. Pruyne, B. M. Africano, E. J. Christensen, G. A. Farneth, D. C. Fuls,
   A. R. Gibbs, A. D. Grauer, H. Gröller, J. A. Johnson, R. A. Kowalski, S.
   M. Larson, G. J. Leonard, D. Rankin, R. L. Seaman, F. C. Shelly. 1.5-m
   reflector + 10K CCD.
(I52) Steward Observatory, Mt. Lemmon Station  (N32.442547 W110.788920)
   US/Arizona.  Observers T. A. Pruyne, B. M. Africano, E. J. Christensen, G.
   A. Farneth, D. C. Fuls, A. R. Gibbs, A. D. Grauer, H. Gröller, J. A.
   Johnson, R. A. Kowalski, S. M. Larson, G. J. Leonard, D. Rankin, R. L.
   Seaman, F. C. Shelly. 1.0-m reflector + CCD.

Orbital elements:  C23N1Z2
   Perihelion 2019 Dec 3.959984 +/- 2.85 TT = 23:02:22 (JD 2458821.459984)
Epoch 2020 Feb  6.0 TT = JDT 2458885.5   Earth MOID: 0.0533   Ve: 0.0828
M  63.84435468 +/- 6                (J2000 ecliptic)          AutoNEOCP
n   0.99694469 +/- 0.0597           Peri.  250.62363 +/- 0.7
a   0.99240437 +/- 0.0396           Node   122.50703 +/- 0.9
e   0.5279810 +/- 0.0357            Incl.   17.10031 +/- 2.0
P   0.99/361.10d           H 24.6   G  0.15   U 10.9  
q 0.46843362 +/- 0.0166    Q 1.51637513 +/- 0.0941
From 11 observations 2020 Feb. 5-6 (24.5 hr); mean residual 1".14
Residuals in arcseconds: 
200205 G96  .07-  .47+    200205 I52  3.8+  .33-    200206 G96  .18-  .14+    
200205 G96  .73+  1.0-    200205 I52  2.0-  1.4-    200206 G96  .21-  .59-    
200205 G96  .64-  .59+    200205 I52  .32-  1.7+    200206 G96  .39+  .45+    
200205 G96  .21-  .05+    200205 I52  1.3-  .03-    

Ephemerides (geocentric):
Date (UTC) HH   RA              Dec         delta   r     elong  mag " sig PA
---- -- -- --  -------------   -----------  ------ ------ -----  --- ---- ---
2020 02 21 05  09 43 53.711   +58 35 59.64  .22673 1.1526 131.9 23.2 1440  64
2020 02 21 06  09 43 39.591   +58 34 47.91  .22714 1.1530 131.9 23.2 1443  64
2020 02 21 07  09 43 25.540   +58 33 36.21  .22755 1.1533 131.9 23.2 1446  64
2020 02 21 08  09 43 11.558   +58 32 24.54  .22795 1.1536 131.9 23.2 1449  64
2020 02 21 09  09 42 57.645   +58 31 12.90  .22836 1.1539 131.9 23.2 1452  64
2020 02 21 10  09 42 43.801   +58 30 01.29  .22877 1.1542 131.9 23.3 1454  64
2020 02 21 11  09 42 30.025   +58 28 49.72  .22918 1.1545 131.9 23.3 1457  64
2020 02 21 12  09 42 16.316   +58 27 38.18  .22959 1.1548 131.9 23.3 1460  64
2020 02 21 13  09 42 02.675   +58 26 26.67  .23000 1.1551 131.8 23.3 1463  64
2020 02 21 14  09 41 49.100   +58 25 15.20  .23041 1.1554 131.8 23.3 1465  64
2020 02 21 15  09 41 35.592   +58 24 03.76  .23081 1.1557 131.8 23.3 1468  63
2020 02 21 16  09 41 22.151   +58 22 52.36  .23122 1.1561 131.8 23.3 1471  63
2020 02 21 17  09 41 08.775   +58 21 40.99  .23163 1.1564 131.8 23.3 1474  63
2020 02 21 18  09 40 55.465   +58 20 29.67  .23204 1.1567 131.8 23.3 1477  63
2020 02 21 19  09 40 42.220   +58 19 18.37  .23245 1.1570 131.8 23.3 1479  63
2020 02 21 20  09 40 29.039   +58 18 07.12  .23286 1.1573 131.8 23.3 1482  63
2020 02 21 21  09 40 15.923   +58 16 55.90  .23327 1.1576 131.8 23.3 1485  63
2020 02 21 22  09 40 02.872   +58 15 44.72  .23368 1.1579 131.8 23.3 1487  63
2020 02 21 23  09 39 49.884   +58 14 33.58  .23409 1.1582 131.8 23.3 1490  63
2020 02 22 00  09 39 36.959   +58 13 22.47  .23450 1.1585 131.8 23.3 1493  63
2020 02 22 01  09 39 24.097   +58 12 11.41  .23491 1.1588 131.8 23.3 1496  63
2020 02 22 02  09 39 11.298   +58 11 00.39  .23532 1.1591 131.8 23.3 1498  63
2020 02 22 03  09 38 58.562   +58 09 49.40  .23573 1.1595 131.8 23.3 1501  63
2020 02 22 04  09 38 45.888   +58 08 38.46  .23615 1.1598 131.8 23.3 1504  63
2020 02 22 05  09 38 33.275   +58 07 27.56  .23656 1.1601 131.7 23.3 1506  63
2020 02 22 06  09 38 20.724   +58 06 16.69  .23697 1.1604 131.7 23.3 1509  63
2020 02 22 07  09 38 08.234   +58 05 05.87  .23738 1.1607 131.7 23.3 1512  63
2020 02 22 08  09 37 55.804   +58 03 55.09  .23779 1.1610 131.7 23.3 1514  62
2020 02 22 09  09 37 43.435   +58 02 44.36  .23820 1.1613 131.7 23.3 1517  62
2020 02 22 10  09 37 31.126   +58 01 33.66  .23861 1.1616 131.7 23.4 1519  62
2020 02 22 11  09 37 18.877   +58 00 23.01  .23903 1.1619 131.7 23.4 1522  62
2020 02 22 12  09 37 06.687   +57 59 12.40  .23944 1.1622 131.7 23.4 1525  62
2020 02 22 13  09 36 54.557   +57 58 01.84  .23985 1.1625 131.7 23.4 1527  62
2020 02 22 14  09 36 42.485   +57 56 51.32  .24026 1.1628 131.7 23.4 1530  62
2020 02 22 15  09 36 30.472   +57 55 40.84  .24068 1.1631 131.7 23.4 1532  62
2020 02 22 16  09 36 18.517   +57 54 30.41  .24109 1.1634 131.7 23.4 1535  62
2020 02 22 17  09 36 06.621   +57 53 20.02  .24150 1.1638 131.7 23.4 1538  62
2020 02 22 18  09 35 54.781   +57 52 09.67  .24191 1.1641 131.6 23.4 1540  62
2020 02 22 19  09 35 42.999   +57 50 59.38  .24233 1.1644 131.6 23.4 1543  62
2020 02 22 20  09 35 31.274   +57 49 49.12  .24274 1.1647 131.6 23.4 1545  62
2020 02 22 21  09 35 19.606   +57 48 38.92  .24315 1.1650 131.6 23.4 1548  62
2020 02 22 22  09 35 07.994   +57 47 28.75  .24357 1.1653 131.6 23.4 1550  62
2020 02 22 23  09 34 56.439   +57 46 18.64  .24398 1.1656 131.6 23.4 1553  62
2020 02 23 00  09 34 44.939   +57 45 08.57  .24439 1.1659 131.6 23.4 1555  62
2020 02 23 01  09 34 33.494   +57 43 58.55  .24481 1.1662 131.6 23.4 1558  62
2020 02 23 02  09 34 22.105   +57 42 48.57  .24522 1.1665 131.6 23.4 1560  61
2020 02 23 03  09 34 10.771   +57 41 38.64  .24564 1.1668 131.6 23.4 1563  61
2020 02 23 04  09 33 59.492   +57 40 28.76  .24605 1.1671 131.6 23.4 1565  61